Le nostre stazioni meteo in Italia

Pubblicità
Il mio iltempo24.it
Trapani/Birgi, Italia (16429): Temperatura & dewpoint: 15.06.2019 00:00:00 - 21.06.2019 00:00:00 (CEST)Trapani/Birgi, Italia (16429): velocità del vento: 15.06.2019 00:00:00 - 21.06.2019 00:00:00 (CEST)Trapani/Birgi, Italia (16429): direzione del vento: 15.06.2019 00:00:00 - 21.06.2019 00:00:00 (CEST)Trapani/Birgi, Italia (16429): reduced air pressure: 15.06.2019 00:00:00 - 21.06.2019 00:00:00 (CEST)Trapani/Birgi, Italia (16429): visibility: 15.06.2019 00:00:00 - 21.06.2019 00:00:00 (CEST)Trapani/Birgi, Italia (16429): ore di luce: 15.06.2019 00:00:00 - 21.06.2019 00:00:00 (CEST)
Data & Tempo tt [°C] td [°C] ff [km/h] ff [kn] dd ppp [hPa] vv [km] sd [min]
21.06.2019 00:00:00 - - - - - - - -
20.06.2019 23:00:00 22,0 19,6 8 4 SSO 1014,2 16 -
20.06.2019 22:00:00 22,0 20,3 5 3 S 1013,6 16 -
20.06.2019 21:00:00 23,0 21,1 5 3 SSO 1013,1 18 -
20.06.2019 20:00:00 28,8 22,1 9 5 ONO 1012,9 20 -
20.06.2019 19:00:00 30,0 15,7 9 5 NNO 1012,9 30 60
20.06.2019 18:00:00 31,6 12,9 13 7 NNO 1012,8 30 60
20.06.2019 17:00:00 31,6 10,9 15 8 NNO 1012,8 30 60
20.06.2019 16:00:00 32,0 10,7 16 9 NNO 1012,9 30 60
20.06.2019 15:00:00 32,0 10,7 16 9 NNO 1013,0 30 60
20.06.2019 14:00:00 31,6 11,4 16 9 NNO 1013,0 30 60
20.06.2019 13:00:00 30,2 13,9 15 8 NNO 1013,7 30 60
20.06.2019 12:00:00 28,8 14,6 15 8 NNO 1013,9 30 60
20.06.2019 11:00:00 27,2 17,7 11 6 NO 1014,1 30 60
20.06.2019 10:00:00 26,4 16,4 8 4 NNE 1014,1 20 60
20.06.2019 09:00:00 20,4 16,8 8 4 NNE 1014,9 30 60
20.06.2019 08:00:00 17,8 14,7 5 3 N 1014,7 30 60
20.06.2019 07:00:00 15,4 12,7 2 1 ENE 1014,1 20 24
20.06.2019 06:00:00 15,0 12,3 4 2 E 1014,0 20 -
20.06.2019 05:00:00 15,2 12,5 5 3 SE 1013,9 15 -
20.06.2019 04:00:00 16,2 13,7 5 3 ESE 1014,0 15 -
20.06.2019 03:00:00 16,0 13,5 5 3 SE 1014,1 15 -
20.06.2019 02:00:00 17,0 14,5 5 3 ESE 1014,3 15 -
20.06.2019 01:00:00 18,4 15,8 2 1 ONO 1014,9 15 -
20.06.2019 00:00:00 20,0 17,4 4 2 E 1014,9 15 -
19.06.2019 23:00:00 21,0 18,4 8 4 NNE 1014,8 15 -
19.06.2019 22:00:00 22,2 19,6 11 6 N 1014,7 15 -
19.06.2019 21:00:00 23,0 20,5 13 7 NO 1014,1 15 -
19.06.2019 20:00:00 23,4 21,5 15 8 NNO 1014,7 18 42
19.06.2019 19:00:00 25,0 22,9 18 10 NNO 1013,3 18 42
19.06.2019 18:00:00 26,6 22,5 18 10 NNO 1013,3 20 60
19.06.2019 17:00:00 25,0 22,9 21 11 NNO 1014,1 20 60
19.06.2019 16:00:00 27,0 20,6 22 12 NNO 1014,3 20 60
19.06.2019 15:00:00 27,0 20,8 24 13 N 1014,5 20 60
19.06.2019 14:00:00 27,6 16,3 22 12 NNO 1014,6 20 60
19.06.2019 13:00:00 28,0 13,9 22 12 NNO 1014,6 20 60
19.06.2019 12:00:00 26,4 19,3 22 12 NNO 1014,6 20 60
19.06.2019 11:00:00 26,0 19,6 15 8 NNO 1014,6 20 60
19.06.2019 10:00:00 24,0 20,3 13 7 NNO 1014,5 20 60
19.06.2019 09:00:00 22,0 18,4 8 4 NO 1014,7 18 60
19.06.2019 08:00:00 18,0 14,7 2 1 - 1014,7 18 48
19.06.2019 07:00:00 16,0 13,3 4 2 N 1014,4 15 0
19.06.2019 06:00:00 15,8 13,1 5 3 E 1014,4 0,1 0
19.06.2019 05:00:00 15,2 12,9 5 3 SE 1014,1 12 0
19.06.2019 04:00:00 15,2 12,3 4 2 SSE 1013,9 11 0
19.06.2019 03:00:00 16,8 14,6 5 3 ESE 1014,1 12 0
19.06.2019 02:00:00 17,2 14,8 2 1 N 1014,1 12 0
19.06.2019 01:00:00 18,2 15,3 4 2 SSE 1014,9 12 -
19.06.2019 00:00:00 20,0 17,2 5 3 N 1015,1 12 -
18.06.2019 23:00:00 21,0 18,2 4 2 N 1015,2 12 -
18.06.2019 22:00:00 21,8 19,2 15 8 N 1015,1 12 0
18.06.2019 21:00:00 22,0 19,7 18 10 N 1014,6 15 36
18.06.2019 20:00:00 22,8 20,5 18 10 N 1014,6 15 30
18.06.2019 19:00:00 24,0 21,9 22 12 NNO 1014,2 20 60
18.06.2019 18:00:00 24,0 21,9 22 12 NNO 1014,2 20 60
18.06.2019 17:00:00 24,8 22,7 26 14 NNO 1014,3 20 60
18.06.2019 16:00:00 24,8 22,7 24 13 NNO 1014,9 20 60
18.06.2019 15:00:00 25,0 22,5 26 14 NNO 1014,9 20 60
18.06.2019 14:00:00 25,0 22,5 26 14 NNO 1014,9 10 60
18.06.2019 13:00:00 25,2 22,3 26 14 NNO 1014,6 20 60
18.06.2019 12:00:00 24,4 21,5 26 14 N 1014,9 20 60
18.06.2019 11:00:00 24,0 21,3 24 13 NNO 1014,7 20 60
18.06.2019 10:00:00 23,2 20,7 22 12 NNO 1014,7 20 60
18.06.2019 09:00:00 23,4 20,2 21 11 N 1014,1 20 60
18.06.2019 08:00:00 22,2 19,0 11 6 N 1013,9 15 54
18.06.2019 07:00:00 20,0 17,0 13 7 N 1014,0 12 0
18.06.2019 06:00:00 20,0 17,2 16 9 NNO 1013,3 12 -
18.06.2019 05:00:00 20,2 17,0 16 9 NNO 1013,3 10 -
18.06.2019 04:00:00 20,8 17,8 13 7 NNO 1013,1 12 -
18.06.2019 03:00:00 21,0 17,8 8 4 NNO 1013,3 12 -
18.06.2019 02:00:00 21,2 18,2 13 7 NE 1014,3 12 -
18.06.2019 01:00:00 21,6 18,6 15 8 NNO 1014,1 12 -
18.06.2019 00:00:00 22,0 19,0 11 6 NNO 1014,0 12 -
17.06.2019 23:00:00 22,0 19,0 11 6 NNO 1013,9 12 -
17.06.2019 22:00:00 22,0 19,0 8 4 NNE 1012,9 12 -
17.06.2019 21:00:00 22,0 19,0 22 12 N 1012,9 12 -
17.06.2019 20:00:00 23,0 20,9 21 11 N 1012,8 12 30
17.06.2019 19:00:00 24,4 21,9 26 14 N 1012,5 15 60
17.06.2019 18:00:00 23,8 21,7 24 13 NNO 1013,0 15 60
17.06.2019 17:00:00 25,0 22,9 28 15 N 1013,7 15 60
17.06.2019 16:00:00 25,0 22,3 26 14 NNO 1014,1 18 60
17.06.2019 15:00:00 25,0 22,5 34 18 NNO 1013,8 18 60
17.06.2019 14:00:00 25,2 24,2 28 15 NNO 1013,8 18 60
17.06.2019 13:00:00 26,2 23,7 24 13 N 1013,8 18 60
17.06.2019 12:00:00 26,2 23,7 26 14 N 1014,0 18 60
17.06.2019 11:00:00 27,4 22,1 16 9 NNO 1013,9 20 60
17.06.2019 10:00:00 26,0 22,3 15 8 NNO 1013,3 18 60
17.06.2019 09:00:00 26,0 19,2 15 8 NNE 1013,1 20 36
17.06.2019 08:00:00 22,0 19,0 15 8 N 1013,1 15 0
17.06.2019 07:00:00 20,0 17,4 4 2 E 1012,8 12 -
17.06.2019 06:00:00 20,0 17,4 4 2 N 1012,9 12 -
17.06.2019 05:00:00 20,2 17,6 8 4 N 1013,1 12 -
17.06.2019 04:00:00 20,2 17,6 8 4 N 1013,0 12 -
17.06.2019 03:00:00 20,6 18,0 9 5 NNO 1013,1 12 -
17.06.2019 02:00:00 20,0 17,4 9 5 NNO 1013,1 12 -
17.06.2019 01:00:00 21,0 18,4 5 3 ENE 1013,6 12 -
17.06.2019 00:00:00 22,0 19,4 13 7 N 1013,4 12 -
16.06.2019 23:00:00 22,2 19,7 5 3 NNE 1013,4 12 -
16.06.2019 22:00:00 23,2 21,1 13 7 N 1013,3 12 -
16.06.2019 21:00:00 23,8 21,9 8 4 N 1013,3 12 -
16.06.2019 20:00:00 24,8 23,0 22 12 N 1013,2 12 60
16.06.2019 19:00:00 25,0 22,9 21 11 N 1013,1 12 54
16.06.2019 18:00:00 25,0 22,9 29 16 N 1013,1 12 60
16.06.2019 17:00:00 25,4 22,3 28 15 N 1013,8 12 60
16.06.2019 16:00:00 26,0 22,3 34 18 N 1014,1 15 60
16.06.2019 15:00:00 26,0 22,5 31 17 N 1014,1 12 60
16.06.2019 14:00:00 26,2 22,5 28 15 N 1014,5 12 60
16.06.2019 13:00:00 25,2 22,1 28 15 N 1015,2 12 60
16.06.2019 12:00:00 24,2 21,1 31 17 N 1016,0 12 60
16.06.2019 11:00:00 24,2 20,9 28 15 N 1015,6 12 60
16.06.2019 10:00:00 23,2 20,2 26 14 N 1015,3 12 30
16.06.2019 09:00:00 22,0 19,0 26 14 N 1015,2 12 42
16.06.2019 08:00:00 21,0 17,8 24 13 N 1015,1 10 12
16.06.2019 07:00:00 20,8 17,6 21 11 N 1014,7 12 -
16.06.2019 06:00:00 20,8 17,6 9 5 N 1014,2 15 -
16.06.2019 05:00:00 20,8 17,8 5 3 N 1014,1 12 -
16.06.2019 04:00:00 21,0 17,8 21 11 N 1014,6 12 -
16.06.2019 03:00:00 21,8 18,6 15 8 N 1016,4 12 -
16.06.2019 02:00:00 21,8 18,8 13 7 N 1016,4 12 -
16.06.2019 01:00:00 22,0 19,2 18 10 N 1015,5 10 -
16.06.2019 00:00:00 22,0 19,5 16 9 N 1015,7 12 -
15.06.2019 23:00:00 22,0 19,4 13 7 NNO 1015,6 12 -
15.06.2019 22:00:00 22,0 19,2 11 6 N 1015,5 12 -
15.06.2019 21:00:00 22,0 19,2 13 7 NNO 1015,0 8 -
15.06.2019 20:00:00 22,2 19,6 15 8 NNO 1015,1 7 -
15.06.2019 19:00:00 23,6 21,7 13 7 NNO 1015,1 7 60
15.06.2019 18:00:00 24,0 22,3 15 8 NNO 1015,1 7 60
15.06.2019 17:00:00 24,2 22,3 13 7 NNO 1015,8 12 48
15.06.2019 16:00:00 24,0 22,3 16 9 NO 1016,1 12 6
15.06.2019 15:00:00 23,8 21,9 9 5 NNO 1016,1 12 6
15.06.2019 14:00:00 24,8 22,3 13 7 NNO 1016,1 12 6
15.06.2019 13:00:00 25,8 21,5 18 10 ONO 1016,5 14 60
15.06.2019 12:00:00 25,0 21,1 16 9 ONO 1016,6 14 60
15.06.2019 11:00:00 25,0 21,7 16 9 ONO 1016,2 12 60
15.06.2019 10:00:00 23,8 20,1 11 6 NO 1016,1 12 60
15.06.2019 09:00:00 22,0 19,4 8 4 NO 1016,1 12 60
15.06.2019 08:00:00 21,0 18,6 4 2 - 1016,1 12 12
15.06.2019 07:00:00 20,0 17,4 4 2 N 1016,1 7 -
15.06.2019 06:00:00 20,0 17,4 5 3 NO 1016,1 5 -
15.06.2019 05:00:00 20,0 17,4 4 2 - 1016,1 12 -
15.06.2019 04:00:00 20,4 17,8 4 2 N 1016,2 12 -
15.06.2019 03:00:00 21,4 19,0 9 5 N 1016,2 12 -
15.06.2019 02:00:00 22,0 20,3 13 7 O 1016,5 12 -
15.06.2019 01:00:00 26,4 17,2 21 11 S 1015,9 12 -
15.06.2019 00:00:00 25,0 19,8 28 15 ESE 1014,2 12 -

tt = Temperatura
td = dewpoint
ff = velocità del vento
dd = direzione del vento
ppp = reduced air pressure
vv = visibility
sd = ore di luce

Stazioni seguenti

WeatherPro
AMSI
MeteoEarth